Regional Weather Roundup
Issued by NWS Bismarck, ND

Home | Current Version | Previous Version | Text Only | Print | Product List | Glossary Off
Versions: 1 2 3 4 5 6 7 8 9 10 11 12 13 14 15 16 17 18 19 20 21 22 23 24 25 26 27 28 29 30 31 32 33 34 35 36 37 38 39 40 41 42 43 44 45 46 47 48 49 50

000
ASUS43 KBIS 221620
RWRBIS

NWR BROADCAST TEXT
NATIONAL WEATHER SERVICE BISMARCK ND
1000 AM CST MON DEC 22 2014

NOTE: "FAIR" INDICATES FEW OR NO CLOUDS BELOW 12,000 FEET WITH NO
SIGNIFICANT WEATHER AND/OR OBSTRUCTIONS TO VISIBILITY.


CITY           SKY/WX    TMP DP  RH WIND       PRES   REMARKS
WILLISTON      CLOUDY    27  22  81 NW20G25   29.57R WCI  13
MINOT          CLOUDY    28  26  92 NE7       29.52R FOG
MINOT AFB      NOT AVBL
BISMARCK       CLOUDY    29  28  96 N6        29.50R
DICKINSON      CLOUDY    27  23  85 NW18      29.48R WCI  14
GARRISON         N/A     29  27  92 N5        29.49R
HETTINGER ARPT LGT SNOW  30  27  88 NW23G31   29.50R FOG     WCI  17
JAMESTOWN      FOG       33  32  96 NE7       29.46R VSB 1/4
BEACH          LGT SNOW  25  25 100 NW16G26   29.56S VSB 3/4 WCI  12
CARRINGTON     FOG       32  32 100 MISG      29.50R VSB 1/2
CROSBY         FOG       27  27 100 NW14      29.58R VSB 1/2 WCI  15
HARVEY         CLOUDY    30  30 100 NE7       29.50R FOG
HAZEN          FOG       28  28 100 N3        29.51R VSB 3/4
LINTON         CLOUDY    27  27 100 N6        29.47R WCI  20
MANDAN         CLOUDY    28  27  93 N6        29.48S FOG
OAKES          FOG       34  34 100 E7        29.45R VSB<1/4
RUGBY          CLOUDY    28  28 100 NE6       29.53R FOG
STANLEY        FOG       27  27 100 NE6       29.51R VSB 1/2 WCI  20
TIOGA          MIX PCPN  27  27 100 N10       29.55R WCI  17
WATFORD CITY   CLOUDY    27  25  93 NW14G20   29.53R WCI  15
$$

CITY           SKY/WX    TMP DP  RH WIND       PRES   REMARKS
GRAND FORKS    CLOUDY    35  35 100 E12       29.54R
GRAND FORKS AF NOT AVBL
DEVILS LAKE    CLOUDY    32  27  80 NE8       29.50R
FARGO          LGT RAIN  37  36  96 E6        29.51R FOG
CANDO          CLOUDY    32  32 100 NE6       29.53S FOG
CAVALIER       CLOUDY    32  32 100 E7        29.57S FOG
GWINNER        CLOUDY    36  36 100 SE12      29.47R VSB 1/2
LANGDON        FOG       32  32 100 E9        29.54R VSB<1/4
ROLLA          CLOUDY    28  28 100 NE6       29.54R FOG
WALHALLA         N/A     32  32 100 E5        29.58R FOG
$$

CITY           SKY/WX    TMP DP  RH WIND       PRES   REMARKS
ABERDEEN       SNOW      33  32  96 CALM      29.44R VSB 1/2
MOBRIDGE       CLOUDY    33  32  96 N7        29.42S FOG
BUFFALO          N/A     36  27  69 NW32G45   29.45R
RAPID CITY     PTSUNNY   41  21  44 NW23G31   29.54S
GLASGOW        CLOUDY    31  25  78 NW25G38   29.66R WCI  17
SIDNEY         CLOUDY    27  21  80 NW17      29.61R VSB 1   WCI  14
WOLF POINT     LGT SNOW  28  24  85 NW13      29.66R FOG     WCI  17
GLENDIVE       CLOUDY    28  25  86 NW22      29.61R WCI  15
MILES CITY     PTCLDY    35  26  69 NW21G26   29.65R
BAKER          SNOW      30  30 100 NW23G33   29.55R VSB 1/2 WCI  17
$$

CITY           SKY/WX    TMP DP  RH WIND       PRES   REMARKS
BILLINGS       MOCLDY    36  28  73 NW23G30   29.77R
GREAT FALLS    CLOUDY    34  24  67 W13       29.79R
REGINA         FOG       23  23 100 N8        29.64  VSB 5/8 WCI  14
ESTEVAN        FOG       28  27  93 NE7       29.57R VSB 1/4
$$




USA.gov is the U.S. government's official web portal to all federal, state and local government web resources and services.